This is the latest recevied weather packets stored in our database for station/object K4DFD-13. If no packets are shown the sender has not sent any weather packets the latest 10 day(s).
| Time | Temp. | Humidity | Pressure | Rain* | Wind** | Luminosity | Snow |
|---|---|---|---|---|---|---|---|
| 1777836961 | 15.56° C | 35% | 1016.8 hPa | 0 mm | - | - | - |
| 1777836060 | 15° C | 34% | 1017.2 hPa | 0 mm | - | - | - |
| 1777835459 | 14.44° C | 36% | 1017.2 hPa | 0 mm | - | - | - |
| 1777835139 | 14.44° C | 36% | 1017.2 hPa | 0 mm | - | - | - |
| 1777834858 | 15° C | 33% | 1017.3 hPa | 0 mm | - | - | - |
| 1777834558 | 15° C | 35% | 1017.3 hPa | 0 mm | - | - | - |
| 1777833636 | 13.89° C | 34% | 1017.5 hPa | 0 mm | - | - | - |
| 1777833035 | 13.89° C | 34% | 1017.7 hPa | 0 mm | - | - | - |
| 1777832434 | 13.33° C | 36% | 1017.8 hPa | 0 mm | - | - | - |
| 1777831233 | 13.33° C | 35% | 1018.1 hPa | 0 mm | - | - | - |
| 1777829751 | 12.22° C | 39% | 1018.3 hPa | 0 mm | - | - | - |
| 1777829431 | 12.22° C | 37% | 1018.2 hPa | 0 mm | - | - | - |
| 1777828530 | 11.67° C | 40% | 1018.5 hPa | 0 mm | - | - | - |
| 1777827629 | 11.67° C | 40% | 1018.8 hPa | 0 mm | - | - | - |
| 1777826147 | 11.67° C | 39% | 1019.1 hPa | 0 mm | - | - | - |
| 1777825827 | 11.11° C | 39% | 1019 hPa | 0 mm | - | - | - |
| 1777825546 | 11.11° C | 39% | 1019 hPa | 0 mm | - | - | - |
| 1777825226 | 11.11° C | 44% | 1019.1 hPa | 0 mm | - | - | - |
| 1777824625 | 11.11° C | 43% | 1019 hPa | 0 mm | - | - | - |
| 1777823724 | 10.56° C | 44% | 1019 hPa | 0 mm | - | - | - |
| 1777823130 | 10.56° C | 45% | 1019.2 hPa | 0 mm | - | - | - |
| 1777821321 | 9.44° C | 45% | 1019.5 hPa | 0 mm | - | - | - |
| 1777818017 | 7.78° C | 47% | 1019.6 hPa | 0 mm | - | - | - |
| 1777817416 | 7.78° C | 47% | 1019.7 hPa | 0 mm | - | - | - |
| 1777817116 | 8.33° C | 48% | 1019.5 hPa | 0 mm | - | - | - |
* Rain latest hour (hover to see other rain measurements)
** Current wind speed in m/s (hover to see current wind gust speed)